STARLINK-32373, 60923

Orbit data source: Space-Track

STARLINK-32373, 60923 is a payload satellite owned by SpaceX/Seattle (US) in LEO that was launched on Sat, 31 Aug 2024 UTC via an FALCON 9 launch vehicle from the Air Force Eastern Test Range (AFETR). Payload-class satellites include a variety of spacecraft equipped with specific instruments for various scientific and technological missions. These include communications satellites like Starlink; space stations such as the ISS; scientific satellites like the Hubble; Earth observation satellites from companies like Planet Labs, Umbra, and HawkEye 360; GPS; miniature CubeSats for education and research; and military/defense satellites.

Loading next visibility...
Identifier
60923, 2024-154W
Orbit
LEO
Country
Flag of USUS
Related business
Manufacturer
SpaceX/Seattle
Mission
Operational Commercial Communications
Bus & Motor
STARLINK V2M, Unknown motor
Mass
730 kg wet, ~700 kg dry
Launch date (UTC)
2024-08-31 (2 years ago)
Launch vehicle
FALCON 9
Launch site
Air Force Eastern Test Range (AFETR)
Object type
Payload
Rocket body
Debris
Shape & HBR
Box + 2 Pan, 17.7 m
Radar Cross Section
33.884 m², Large (>1 m²)

Expand to show TLE details & history
Last TLE update: 14 hours ago

TLE from 14 hours ago
0 STARLINK-32373
1 60923U 24154W   26129.89820993 -.00001312  00000-0 -32172-4 0  9992
2 60923  53.1608 359.7194 0001459  88.9339 271.1828 15.30188797 95712
Epoch: 2026-05-09T21:33Z
TLE epoch observation values (Epoch: 2026-05-09T21:33:25.337Z)
Latitude
-0.00012°
Longitude
168.6547°
Altitude
476.128 km
Speed
7.629 km/s
True Right ascension
23h 58m 52s
True Declination
0° 00' 00"
Sunlit
Object was in daylight at epoch
Visualization orbit readout
Latitude
Unknown
Longitude
Unknown
Altitude
Unknown
Speed
Unknown
Apparent Right ascension
Unknown
Apparent Declination
Unknown
Sunlit
N/A
Visualization observer readout
Local Sidereal Time
19:51:20
Azimuth
Unknown
Elevation
Unknown
Doppler factor
Unknown
Orbital elements
Apogee altitude
476.505 km
Perigee altitude
474.505 km
Semi-major axis
6,853.642 km
Eccentricity
0.00015
Inclination
53.1608°
RAAN
359.7194°
Arg. of periapsis
88.9339°
True anomaly
271.16608°
Mean anomaly
271.1828°
Eccentric anomaly
271.17444°
Mean motion
3.82526 °/min
Orbital period
94.11 mins
BSTAR
-0.000032172
Loading maneuver chart data...
Computing Atmospheric mass density...
Loading historical data...
Loading historical data...
Loading historical data...
Loading historical data...
Loading historical data...
Loading historical data...
Loading historical data...

Documentation

Showing up to 5 results
|